Total_Precipitation_Accumulation
3.02 3.00 3.45 4.33 5.14 4.68 4.15 3.34 2.81 2.63 2.24 1.77 1.35 1.30 1.63 2.14 2.75 3.32 3.54 3.27 2.26 1.81 1.97 2.99 3.87 3.53 3.04 2.63 2.36 2.37 2.39 2.53 2.56 2.59 2.46 2.22 2.06 1.99 1.85 1.72 1.78 1.72 1.59 1.48 1.43 1.57 1.67 1.63 1.78
2.30 3.17 4.05 5.05 4.82 4.17 3.89 3.33 3.01 2.46 1.79 1.43 1.06 0.95 1.06 1.19 1.25 1.99 3.34 3.15 2.00 1.66 1.81 2.25 3.19 3.10 2.67 2.45 2.38 2.47 2.50 2.63 2.63 2.53 2.36 2.18 2.12 2.06 1.90 1.86 1.97 1.79 1.68 1.55 1.48 1.63 1.79 1.71 1.77
2.40 3.56 4.59 4.95 3.90 3.63 3.74 3.40 2.76 1.99 1.45 1.34 1.14 0.96 1.18 1.55 1.60 2.27 3.08 2.36 1.69 1.60 1.78 2.47 3.18 2.93 2.57 2.37 2.58 2.76 2.74 2.71 2.55 2.37 2.22 2.16 2.16 2.11 2.06 2.07 2.15 1.91 1.80 1.62 1.53 1.63 1.69 1.66 1.70
2.78 3.98 4.23 4.00 3.37 2.96 3.04 2.97 2.31 1.86 1.43 1.04 1.04 1.08 1.16 1.60 1.66 2.00 2.04 1.68 1.46 1.63 1.82 2.43 3.12 2.88 2.62 2.44 2.70 2.84 2.84 2.88 2.76 2.48 2.24 2.15 2.08 2.06 2.03 2.08 2.02 1.97 1.92 1.69 1.57 1.63 1.69 1.69 1.69
3.27 4.21 4.12 3.56 3.15 2.81 2.48 2.10 1.86 1.81 1.47 1.10 0.96 1.26 1.69 2.09 1.83 1.69 1.63 1.52 1.35 1.49 1.56 1.92 2.77 2.88 2.66 2.57 2.81 2.89 2.92 3.09 3.00 2.72 2.52 2.27 2.10 2.07 2.06 2.11 1.97 1.93 1.95 1.94 1.83 1.77 1.76 1.76 1.78
3.58 3.71 4.02 3.52 3.13 2.90 2.73 2.01 1.78 1.76 1.39 1.09 1.03 1.35 2.19 2.61 2.19 1.85 1.62 1.67 1.58 1.56 1.51 1.59 2.40 2.73 2.70 2.74 2.81 2.76 2.75 2.85 2.88 2.64 2.44 2.19 2.05 2.04 2.17 2.24 2.08 2.05 1.91 1.85 1.91 1.92 1.92 1.96 1.94
3.54 3.65 3.74 3.08 3.03 3.24 2.81 1.96 1.80 1.72 1.62 1.31 0.97 1.51 2.33 2.84 2.41 1.94 1.73 1.73 1.79 1.71 1.65 1.60 1.83 2.21 2.57 2.69 2.58 2.54 2.52 2.51 2.61 2.46 2.34 2.15 2.07 2.04 2.15 2.20 2.11 2.13 2.12 2.09 2.17 2.30 2.25 2.19 2.24
2.61 2.97 3.05 2.96 3.07 3.27 2.42 1.81 1.49 1.47 1.45 1.09 0.91 1.51 2.26 2.30 2.06 1.95 1.94 2.04 2.14 1.93 1.78 1.61 1.60 1.69 1.80 2.06 2.28 2.46 2.51 2.45 2.50 2.30 2.10 1.98 1.96 1.99 2.13 2.13 2.11 2.23 2.28 2.33 2.53 2.70 2.62 2.71 2.63
2.35 3.12 3.43 3.41 3.11 2.63 1.72 1.58 1.35 1.13 1.20 1.05 0.86 0.98 1.33 1.52 1.67 1.90 1.95 2.00 2.08 1.79 1.65 1.68 1.65 1.64 1.71 1.70 1.79 2.12 2.27 2.30 2.17 2.07 1.93 1.78 1.55 1.48 1.69 1.85 2.30 2.59 2.77 2.70 2.70 2.60 2.48 2.39 2.24
2.40 3.25 3.23 2.55 2.21 1.94 1.43 1.33 1.20 1.23 1.28 1.20 1.01 1.01 1.17 1.38 1.72 1.90 1.80 1.78 1.69 1.59 1.49 1.50 1.49 1.58 1.63 1.49 1.72 2.03 1.84 1.74 1.53 1.53 1.41 1.48 1.43 1.40 1.22 1.45 2.03 2.34 2.44 2.43 2.44 2.36 2.11 1.80 1.52
1.89 2.45 2.20 1.92 1.68 1.43 1.29 1.30 1.14 1.22 1.43 1.27 1.10 1.17 1.47 1.69 1.88 1.76 1.60 1.59 1.43 1.38 1.33 1.21 1.23 1.27 1.41 1.56 1.80 2.08 2.13 1.91 1.69 1.43 1.35 1.41 1.35 1.28 1.17 1.19 1.37 1.55 1.61 1.49 1.53 1.55 1.41 1.33 1.27
1.61 1.58 1.54 1.73 1.48 1.42 1.29 1.22 1.23 1.21 1.27 1.11 0.95 1.03 1.26 1.53 1.76 1.68 1.53 1.43 1.17 1.15 1.26 1.03 0.92 1.06 1.22 1.30 1.42 1.69 1.74 1.65 1.54 1.35 1.25 1.35 1.40 1.30 1.26 1.26 1.30 1.30 1.26 1.29 1.30 1.39 1.36 1.18 1.09
1.97 1.69 1.42 1.38 1.38 1.44 1.26 1.19 1.17 1.16 1.05 0.93 0.88 1.07 1.22 1.28 1.44 1.44 1.45 1.38 1.23 1.17 1.20 1.07 0.93 0.90 0.96 1.02 1.13 1.24 1.39 1.46 1.48 1.46 1.25 1.25 1.40 1.38 1.35 1.28 1.32 1.20 1.10 1.15 1.24 1.29 1.35 1.26 1.11
1.87 1.62 1.58 1.55 1.44 1.41 1.40 1.15 1.14 1.36 1.04 0.92 0.99 1.10 1.11 1.10 1.12 1.28 1.34 1.33 1.24 1.18 1.22 1.14 1.01 0.99 0.99 0.94 0.93 0.92 1.05 1.23 1.34 1.38 1.29 1.28 1.38 1.41 1.46 1.39 1.31 1.24 1.16 1.18 1.35 1.32 1.35 1.34 1.28
1.80 1.95 1.85 1.73 1.57 1.50 1.41 1.55 1.45 1.31 1.07 1.02 1.09 1.05 1.02 1.00 1.00 1.14 1.16 1.14 1.15 1.23 1.25 1.21 1.13 1.14 1.12 1.04 0.99 0.85 0.88 0.98 1.14 1.31 1.31 1.36 1.31 1.24 1.32 1.33 1.26 1.23 1.24 1.27 1.31 1.35 1.43 1.36 1.27
2.04 2.31 2.47 2.06 1.71 1.44 1.47 2.01 1.82 1.43 1.16 1.17 1.14 1.05 1.01 0.98 0.96 1.00 1.01 1.06 1.05 1.10 1.24 1.33 1.22 1.24 1.22 1.20 1.17 1.09 1.08 1.14 1.23 1.42 1.41 1.36 1.40 1.35 1.34 1.37 1.32 1.32 1.34 1.33 1.37 1.45 1.46 1.43 1.41
2.18 2.23 2.12 1.95 1.58 1.31 1.34 1.72 1.71 1.49 1.22 1.10 1.08 1.03 0.93 0.85 0.84 0.82 0.81 0.85 0.95 1.00 1.09 1.24 1.34 1.39 1.34 1.32 1.40 1.47 1.47 1.47 1.49 1.58 1.49 1.37 1.38 1.42 1.52 1.54 1.52 1.46 1.48 1.49 1.44 1.47 1.39 1.41 1.42
2.04 1.72 1.50 1.46 1.38 1.23 1.17 1.30 1.34 1.36 1.23 1.04 0.92 0.89 0.89 0.80 0.77 0.72 0.69 0.71 0.82 0.90 0.98 1.12 1.27 1.49 1.55 1.52 1.49 1.63 1.66 1.70 1.79 1.86 1.68 1.54 1.56 1.67 1.83 1.89 1.78 1.73 1.72 1.71 1.65 1.69 1.59 1.48 1.51
1.47 1.42 1.30 1.11 1.08 1.16 1.08 1.08 1.11 1.12 1.11 0.99 0.85 0.73 0.71 0.69 0.65 0.63 0.60 0.62 0.67 0.74 0.81 0.94 1.09 1.30 1.38 1.42 1.53 1.73 1.89 2.02 2.11 2.16 2.00 1.87 1.83 1.96 2.10 2.01 2.08 2.08 1.95 1.93 1.99 2.03 2.00 1.81 1.66
1.31 1.34 1.17 1.01 0.85 0.90 0.95 0.98 1.00 0.95 0.95 0.83 0.72 0.66 0.58 0.53 0.50 0.45 0.41 0.44 0.48 0.49 0.55 0.67 0.84 0.96 1.11 1.30 1.57 1.79 2.04 2.07 2.14 2.20 2.20 2.11 2.04 2.16 2.19 2.26 2.36 2.37 2.38 2.31 2.19 2.30 2.46 2.19 1.95
1.13 1.16 1.06 0.99 0.87 0.80 0.80 0.98 0.93 0.86 0.81 0.74 0.61 0.53 0.45 0.37 0.33 0.28 0.28 0.35 0.41 0.40 0.44 0.54 0.69 0.85 1.09 1.34 1.71 2.00 2.28 2.38 2.44 2.39 2.40 2.39 2.37 2.39 2.40 2.46 2.51 2.51 2.37 2.37 2.48 2.61 2.95 2.76 2.38
1.10 0.80 0.76 0.78 0.95 0.99 0.82 1.14 0.85 0.71 0.69 0.63 0.55 0.49 0.43 0.35 0.32 0.30 0.28 0.29 0.32 0.37 0.45 0.58 0.79 1.03 1.32 1.65 2.01 2.28 2.58 2.74 2.58 2.57 2.57 2.51 2.40 2.37 2.45 2.44 2.42 2.38 2.33 2.39 2.47 2.52 2.95 3.18 2.89
0.77 0.65 0.78 0.83 0.87 0.83 0.63 0.82 0.74 0.60 0.66 0.58 0.50 0.48 0.50 0.48 0.39 0.37 0.38 0.38 0.42 0.49 0.59 0.79 1.06 1.37 1.69 1.96 2.14 2.40 2.54 2.55 2.50 2.44 2.44 2.35 2.31 2.27 2.28 2.25 2.34 2.33 2.36 2.42 2.60 2.72 3.00 3.05 3.07
0.60 0.72 0.86 0.89 0.95 1.00 0.55 0.66 0.78 0.59 0.56 0.54 0.48 0.43 0.42 0.46 0.42 0.42 0.46 0.54 0.62 0.70 0.87 1.07 1.24 1.55 1.75 1.92 2.06 2.23 2.37 2.39 2.37 2.35 2.39 2.37 2.33 2.22 2.15 2.11 2.17 2.28 2.40 2.44 2.54 2.71 2.97 3.11 3.21
0.60 1.05 1.41 1.41 1.32 0.98 0.48 0.70 0.81 0.60 0.48 0.42 0.43 0.43 0.39 0.42 0.48 0.49 0.62 0.78 0.85 0.90 1.03 1.21 1.30 1.50 1.62 1.70 1.83 1.98 2.00 2.03 2.04 2.04 2.06 1.97 1.91 1.89 1.96 2.04 2.12 2.25 2.33 2.39 2.50 2.63 2.70 2.84 3.10
0.56 0.86 1.41 1.51 1.27 0.92 0.66 0.96 0.88 0.63 0.49 0.45 0.45 0.44 0.47 0.55 0.66 0.76 0.91 1.00 1.08 1.12 1.11 1.17 1.33 1.37 1.39 1.47 1.48 1.56 1.63 1.68 1.73 1.71 1.72 1.77 1.80 1.81 1.75 1.79 1.86 2.08 2.27 2.35 2.44 2.45 2.44 2.51 2.71
0.57 0.63 0.71 1.01 0.93 0.96 0.91 1.10 1.01 0.64 0.51 0.50 0.50 0.50 0.56 0.70 0.91 1.17 1.36 1.46 1.53 1.47 1.31 1.19 1.22 1.24 1.22 1.32 1.37 1.41 1.47 1.50 1.52 1.54 1.46 1.57 1.59 1.59 1.54 1.58 1.61 1.73 1.93 2.18 2.33 2.31 2.24 2.21 2.37
0.48 0.64 0.83 1.23 1.40 1.35 1.21 1.34 1.32 0.87 0.68 0.60 0.63 0.70 0.81 1.02 1.35 1.66 1.93 2.10 2.07 1.86 1.61 1.37 1.21 1.14 1.12 1.18 1.27 1.37 1.40 1.40 1.37 1.39 1.31 1.34 1.42 1.42 1.35 1.37 1.48 1.64 1.74 1.91 2.11 2.19 2.15 2.17 2.25
0.52 0.72 0.91 1.17 1.21 1.51 1.70 1.68 1.37 1.15 0.95 0.88 0.97 1.15 1.33 1.58 1.81 2.01 2.19 2.31 2.11 1.92 1.65 1.38 1.21 1.20 1.22 1.27 1.32 1.34 1.30 1.28 1.26 1.21 1.16 1.20 1.27 1.26 1.25 1.39 1.48 1.55 1.65 1.82 2.05 2.20 2.22 2.16 2.17
0.64 0.91 1.18 1.61 1.48 1.38 1.70 1.79 1.27 1.08 1.05 1.07 1.18 1.27 1.41 1.54 1.57 1.68 1.79 1.80 1.85 1.81 1.62 1.42 1.29 1.28 1.33 1.39 1.43 1.37 1.31 1.26 1.23 1.19 1.10 1.09 1.05 1.03 1.13 1.27 1.30 1.34 1.37 1.57 1.86 2.06 2.11 2.11 2.01